QPF
0.01 0.01 0.02 0.02 0.02 0.02 0.01 0.01 0.01 0.01 0.02 0.02 0.03 0.04 0.02 0.01 0.02 0.02 0.01 0.01 0.02 0.02 0.03 0.03 0.05 0.10 0.15 0.15 0.11 0.05 0.02 0.01 0.01 0.02 0.02 0.04 0.04 0.04
0.00 0.01 0.02 0.02 0.01 0.01 0.01 0.01 0.00 0.01 0.01 0.02 0.02 0.02 0.02 0.02 0.04 0.03 0.02 0.01 0.02 0.02 0.04 0.04 0.07 0.12 0.16 0.15 0.10 0.05 0.03 0.02 0.01 0.01 0.01 0.03 0.04 0.04
0.02 0.02 0.02 0.01 0.01 0.00 0.01 0.01 0.01 0.01 0.01 0.01 0.01 0.03 0.03 0.03 0.04 0.03 0.01 0.01 0.01 0.01 0.01 0.02 0.04 0.08 0.10 0.10 0.09 0.07 0.04 0.03 0.02 0.02 0.02 0.03 0.03 0.03
0.02 0.02 0.02 0.01 0.01 0.00 0.01 0.01 0.01 0.02 0.01 0.01 0.02 0.04 0.04 0.03 0.04 0.02 0.02 0.01 0.01 0.01 0.01 0.00 0.01 0.03 0.04 0.05 0.07 0.07 0.05 0.03 0.02 0.02 0.02 0.03 0.03 0.04
0.01 0.01 0.01 0.01 0.00 0.01 0.01 0.02 0.03 0.02 0.01 0.01 0.02 0.02 0.03 0.05 0.04 0.03 0.02 0.02 0.01 0.01 0.01 0.01 0.00 0.00 0.01 0.02 0.03 0.05 0.05 0.05 0.02 0.02 0.01 0.01 0.02 0.02
0.00 0.00 0.00 0.01 0.01 0.02 0.02 0.02 0.02 0.01 0.01 0.01 0.01 0.01 0.02 0.05 0.04 0.02 0.02 0.03 0.02 0.01 0.01 0.02 0.01 0.01 0.01 0.01 0.01 0.02 0.03 0.03 0.02 0.02 0.01 0.01 0.01 0.01
0.00 0.00 0.00 0.00 0.00 0.01 0.01 0.01 0.01 0.01 0.01 0.00 0.00 0.01 0.01 0.03 0.02 0.02 0.02 0.02 0.03 0.02 0.02 0.02 0.02 0.01 0.01 0.01 0.01 0.01 0.01 0.02 0.02 0.02 0.01 0.01 0.00 0.00
0.00 0.00 0.00 0.00 0.00 0.00 0.00 0.00 0.01 0.01 0.00 0.00 0.00 0.01 0.01 0.01 0.01 0.02 0.02 0.02 0.01 0.02 0.02 0.01 0.01 0.01 0.00 0.00 0.01 0.01 0.01 0.01 0.00 0.00 0.01 0.01 0.01 0.01
0.00 0.00 0.00 0.00 0.00 0.00 0.00 0.00 0.00 0.00 0.00 0.00 0.00 0.00 0.00 0.00 0.01 0.01 0.01 0.00 0.00 0.01 0.02 0.01 0.00 0.00 0.00 0.00 0.00 0.00 0.00 0.00 0.00 0.00 0.00 0.00 0.01 0.01
0.00 0.00 0.00 0.00 0.00 0.00 0.00 0.00 0.00 0.00 0.00 0.00 0.00 0.00 0.00 0.00 0.00 0.01 0.01 0.00 0.01 0.00 0.00 0.00 0.00 0.00 0.00 0.00 0.00 0.00 0.00 0.00 0.00 0.00 0.00 0.00 0.00 0.00
0.00 0.00 0.00 0.00 0.00 0.00 0.00 0.00 0.00 0.00 0.00 0.00 0.00 0.00 0.00 0.00 0.00 0.00 0.00 0.00 0.00 0.00 0.00 0.00 0.00 0.00 0.00 0.00 0.00 0.00 0.00 0.00 0.00 0.00 0.00 0.00 0.00 0.00
0.00 0.00 0.00 0.00 0.00 0.00 0.00 0.00 0.00 0.00 0.00 0.00 0.00 0.00 0.00 0.00 0.00 0.00 0.00 0.00 0.00 0.00 0.00 0.00 0.00 0.00 0.00 0.00 0.00 0.00 0.00 0.00 0.00 0.00 0.00 0.00 0.00 0.00
0.00 0.00 0.00 0.00 0.00 0.00 0.00 0.00 0.00 0.00 0.00 0.00 0.00 0.00 0.00 0.00 0.00 0.00 0.00 0.00 0.00 0.00 0.00 0.00 0.00 0.00 0.00 0.00 0.00 0.00 0.00 0.00 0.01 0.01 0.01 0.00 0.00 0.00
0.00 0.00 0.00 0.00 0.00 0.00 0.00 0.00 0.00 0.00 0.00 0.00 0.00 0.00 0.00 0.00 0.00 0.00 0.00 0.00 0.00 0.00 0.00 0.00 0.00 0.00 0.00 0.00 0.00 0.00 0.00 0.00 0.00 0.01 0.02 0.01 0.01 0.01
0.00 0.00 0.00 0.00 0.00 0.00 0.00 0.00 0.00 0.00 0.00 0.00 0.00 0.00 0.00 0.00 0.00 0.00 0.00 0.00 0.00 0.00 0.00 0.00 0.00 0.00 0.00 0.00 0.00 0.00 0.00 0.00 0.00 0.02 0.03 0.03 0.03 0.02
0.00 0.00 0.00 0.00 0.00 0.00 0.00 0.00 0.00 0.00 0.00 0.00 0.00 0.00 0.00 0.00 0.00 0.00 0.00 0.00 0.00 0.00 0.00 0.00 0.00 0.00 0.00 0.00 0.00 0.00 0.00 0.00 0.00 0.01 0.02 0.03 0.02 0.01
0.00 0.00 0.00 0.00 0.00 0.00 0.00 0.00 0.00 0.00 0.00 0.00 0.00 0.00 0.00 0.00 0.00 0.00 0.00 0.00 0.00 0.00 0.00 0.00 0.00 0.00 0.00 0.00 0.00 0.00 0.00 0.00 0.00 0.00 0.00 0.01 0.01 0.01
0.00 0.00 0.00 0.00 0.00 0.00 0.00 0.00 0.00 0.00 0.00 0.00 0.00 0.00 0.00 0.00 0.00 0.00 0.00 0.00 0.00 0.00 0.00 0.00 0.00 0.00 0.00 0.00 0.00 0.00 0.00 0.00 0.00 0.00 0.00 0.00 0.00 0.00
0.00 0.00 0.00 0.00 0.00 0.00 0.00 0.00 0.00 0.00 0.00 0.01 0.01 0.01 0.00 0.00 0.00 0.00 0.00 0.00 0.00 0.00 0.00 0.00 0.00 0.00 0.00 0.00 0.00 0.00 0.00 0.00 0.00 0.00 0.00 0.00 0.00 0.00
0.00 0.00 0.00 0.01 0.01 0.01 0.00 0.00 0.00 0.00 0.00 0.00 0.00 0.00 0.00 0.00 0.00 0.00 0.00 0.00 0.00 0.00 0.00 0.00 0.00 0.00 0.00 0.00 0.00 0.00 0.00 0.00 0.00 0.00 0.00 0.00 0.00 0.00
0.00 0.00 0.00 0.00 0.00 0.01 0.01 0.00 0.00 0.00 0.00 0.00 0.00 0.00 0.00 0.00 0.01 0.01 0.00 0.00 0.00 0.00 0.00 0.00 0.00 0.00 0.00 0.00 0.00 0.00 0.00 0.00 0.00 0.00 0.00 0.00 0.00 0.00
0.00 0.00 0.00 0.00 0.00 0.00 0.00 0.00 0.00 0.00 0.00 0.00 0.00 0.00 0.00 0.00 0.01 0.01 0.01 0.01 0.01 0.01 0.00 0.01 0.01 0.01 0.01 0.01 0.01 0.01 0.01 0.01 0.01 0.01 0.01 0.01 0.00 0.00
0.00 0.00 0.00 0.00 0.00 0.00 0.00 0.00 0.00 0.00 0.00 0.00 0.00 0.00 0.00 0.00 0.00 0.00 0.01 0.01 0.01 0.01 0.01 0.01 0.01 0.02 0.02 0.02 0.02 0.02 0.02 0.02 0.02 0.02 0.02 0.02 0.01 0.01
MSLP
1018.69 1018.92 1019.21 1019.52 1019.82 1020.09 1020.31 1020.48 1020.60 1020.70 1020.77 1020.84 1020.89 1020.92 1020.91 1020.86 1020.75 1020.58 1020.36 1020.11 1019.84 1019.58 1019.36 1019.17 1019.03 1018.92 1018.83 1018.75 1018.67 1018.59 1018.51 1018.43 1018.37 1018.34 1018.35 1018.41 1018.52 1018.66
1019.05 1019.22 1019.43 1019.66 1019.89 1020.10 1020.27 1020.41 1020.53 1020.64 1020.75 1020.86 1020.97 1021.06 1021.13 1021.15 1021.12 1021.03 1020.89 1020.71 1020.52 1020.34 1020.17 1020.04 1019.93 1019.85 1019.78 1019.70 1019.62 1019.52 1019.41 1019.30 1019.20 1019.14 1019.12 1019.14 1019.21 1019.32
1019.54 1019.65 1019.79 1019.94 1020.09 1020.23 1020.35 1020.46 1020.57 1020.68 1020.81 1020.95 1021.10 1021.25 1021.37 1021.46 1021.49 1021.46 1021.39 1021.28 1021.16 1021.04 1020.93 1020.85 1020.79 1020.75 1020.70 1020.64 1020.56 1020.45 1020.32 1020.18 1020.05 1019.95 1019.89 1019.88 1019.91 1019.98
1020.11 1020.17 1020.25 1020.33 1020.41 1020.49 1020.56 1020.64 1020.72 1020.84 1020.97 1021.14 1021.32 1021.50 1021.65 1021.77 1021.84 1021.86 1021.82 1021.76 1021.68 1021.61 1021.55 1021.51 1021.50 1021.48 1021.47 1021.42 1021.35 1021.24 1021.10 1020.96 1020.81 1020.69 1020.60 1020.57 1020.57 1020.62
1020.69 1020.71 1020.75 1020.78 1020.81 1020.83 1020.86 1020.91 1020.98 1021.09 1021.23 1021.40 1021.59 1021.77 1021.94 1022.07 1022.14 1022.17 1022.15 1022.10 1022.04 1021.98 1021.95 1021.94 1021.95 1021.96 1021.97 1021.95 1021.89 1021.80 1021.67 1021.53 1021.39 1021.27 1021.18 1021.14 1021.14 1021.17
1021.18 1021.20 1021.20 1021.21 1021.20 1021.19 1021.20 1021.22 1021.28 1021.37 1021.50 1021.67 1021.85 1022.03 1022.18 1022.29 1022.35 1022.36 1022.33 1022.27 1022.20 1022.14 1022.11 1022.11 1022.12 1022.15 1022.18 1022.18 1022.14 1022.07 1021.97 1021.85 1021.74 1021.64 1021.57 1021.54 1021.55 1021.59
1021.53 1021.55 1021.55 1021.54 1021.52 1021.50 1021.49 1021.49 1021.54 1021.62 1021.73 1021.88 1022.04 1022.19 1022.32 1022.41 1022.44 1022.42 1022.36 1022.28 1022.19 1022.12 1022.08 1022.06 1022.08 1022.11 1022.14 1022.16 1022.14 1022.10 1022.03 1021.95 1021.87 1021.80 1021.77 1021.77 1021.81 1021.87
1021.71 1021.74 1021.75 1021.74 1021.73 1021.70 1021.68 1021.68 1021.71 1021.77 1021.87 1021.99 1022.12 1022.24 1022.34 1022.39 1022.40 1022.36 1022.28 1022.18 1022.08 1021.99 1021.93 1021.91 1021.92 1021.94 1021.97 1021.99 1022.00 1021.97 1021.94 1021.89 1021.84 1021.81 1021.81 1021.85 1021.91 1021.99
1021.73 1021.78 1021.81 1021.82 1021.82 1021.81 1021.79 1021.78 1021.79 1021.83 1021.90 1021.99 1022.09 1022.18 1022.25 1022.28 1022.27 1022.22 1022.14 1022.03 1021.93 1021.84 1021.78 1021.75 1021.75 1021.77 1021.80 1021.82 1021.83 1021.82 1021.80 1021.77 1021.74 1021.74 1021.76 1021.81 1021.89 1021.98
1021.64 1021.72 1021.78 1021.82 1021.84 1021.85 1021.84 1021.82 1021.82 1021.83 1021.87 1021.92 1021.98 1022.05 1022.10 1022.12 1022.11 1022.07 1022.00 1021.92 1021.83 1021.76 1021.72 1021.70 1021.70 1021.72 1021.74 1021.75 1021.75 1021.74 1021.71 1021.68 1021.66 1021.65 1021.67 1021.72 1021.79 1021.88
1021.52 1021.63 1021.73 1021.81 1021.87 1021.89 1021.89 1021.87 1021.85 1021.84 1021.84 1021.86 1021.89 1021.92 1021.96 1021.98 1021.98 1021.96 1021.92 1021.88 1021.83 1021.80 1021.78 1021.78 1021.79 1021.80 1021.82 1021.82 1021.81 1021.78 1021.73 1021.68 1021.63 1021.60 1021.59 1021.61 1021.65 1021.71
1021.41 1021.57 1021.72 1021.85 1021.94 1021.99 1022.00 1021.98 1021.94 1021.90 1021.87 1021.85 1021.85 1021.87 1021.88 1021.90 1021.92 1021.93 1021.93 1021.92 1021.92 1021.93 1021.94 1021.96 1021.98 1022.00 1022.01 1022.00 1021.96 1021.90 1021.83 1021.74 1021.66 1021.58 1021.53 1021.50 1021.50 1021.51
1021.35 1021.57 1021.77 1021.95 1022.08 1022.15 1022.18 1022.16 1022.12 1022.05 1021.99 1021.94 1021.91 1021.90 1021.90 1021.92 1021.94 1021.97 1022.00 1022.03 1022.06 1022.09 1022.13 1022.17 1022.20 1022.22 1022.22 1022.19 1022.13 1022.05 1021.93 1021.81 1021.68 1021.56 1021.46 1021.38 1021.33 1021.29
1021.32 1021.59 1021.85 1022.07 1022.24 1022.35 1022.39 1022.38 1022.33 1022.26 1022.18 1022.11 1022.05 1022.01 1022.00 1022.00 1022.02 1022.05 1022.08 1022.12 1022.17 1022.21 1022.26 1022.30 1022.33 1022.35 1022.33 1022.29 1022.21 1022.10 1021.96 1021.81 1021.65 1021.49 1021.35 1021.23 1021.13 1021.05
1021.25 1021.58 1021.89 1022.15 1022.36 1022.49 1022.56 1022.56 1022.52 1022.45 1022.36 1022.28 1022.21 1022.15 1022.12 1022.10 1022.10 1022.11 1022.13 1022.16 1022.19 1022.22 1022.25 1022.28 1022.30 1022.29 1022.27 1022.21 1022.12 1022.00 1021.84 1021.67 1021.50 1021.32 1021.16 1021.01 1020.89 1020.80
1021.10 1021.47 1021.81 1022.11 1022.35 1022.51 1022.60 1022.62 1022.60 1022.55 1022.47 1022.39 1022.32 1022.26 1022.20 1022.17 1022.14 1022.12 1022.10 1022.09 1022.08 1022.08 1022.07 1022.07 1022.06 1022.04 1021.99 1021.93 1021.83 1021.71 1021.56 1021.39 1021.22 1021.04 1020.88 1020.74 1020.62 1020.52
1020.84 1021.23 1021.59 1021.91 1022.16 1022.34 1022.46 1022.51 1022.52 1022.49 1022.44 1022.38 1022.32 1022.26 1022.21 1022.16 1022.10 1022.04 1021.98 1021.92 1021.86 1021.80 1021.75 1021.71 1021.66 1021.61 1021.55 1021.48 1021.38 1021.27 1021.14 1020.99 1020.84 1020.69 1020.55 1020.43 1020.32 1020.24
1020.48 1020.88 1021.24 1021.56 1021.81 1022.01 1022.14 1022.22 1022.26 1022.27 1022.26 1022.24 1022.21 1022.17 1022.12 1022.06 1021.99 1021.90 1021.80 1021.69 1021.58 1021.47 1021.37 1021.28 1021.20 1021.12 1021.05 1020.97 1020.88 1020.78 1020.67 1020.55 1020.43 1020.31 1020.20 1020.11 1020.04 1019.98
1020.11 1020.50 1020.85 1021.15 1021.40 1021.59 1021.73 1021.83 1021.90 1021.95 1021.98 1022.00 1022.02 1022.01 1021.99 1021.94 1021.86 1021.76 1021.63 1021.49 1021.33 1021.18 1021.04 1020.91 1020.80 1020.70 1020.61 1020.52 1020.44 1020.35 1020.26 1020.17 1020.07 1019.98 1019.90 1019.84 1019.79 1019.76
1019.87 1020.24 1020.56 1020.83 1021.05 1021.22 1021.36 1021.47 1021.56 1021.64 1021.71 1021.77 1021.83 1021.86 1021.87 1021.84 1021.77 1021.67 1021.54 1021.38 1021.20 1021.03 1020.86 1020.70 1020.57 1020.45 1020.35 1020.26 1020.17 1020.09 1020.00 1019.92 1019.84 1019.77 1019.70 1019.66 1019.63 1019.61
1019.88 1020.22 1020.51 1020.74 1020.93 1021.07 1021.18 1021.28 1021.38 1021.47 1021.57 1021.66 1021.74 1021.81 1021.85 1021.84 1021.80 1021.71 1021.59 1021.43 1021.25 1021.07 1020.89 1020.72 1020.57 1020.44 1020.32 1020.22 1020.13 1020.04 1019.95 1019.86 1019.78 1019.70 1019.64 1019.59 1019.55 1019.53
1020.24 1020.55 1020.80 1020.99 1021.13 1021.24 1021.32 1021.39 1021.46 1021.55 1021.65 1021.75 1021.85 1021.93 1021.99 1022.01 1021.98 1021.92 1021.81 1021.66 1021.50 1021.32 1021.14 1020.97 1020.82 1020.68 1020.55 1020.43 1020.32 1020.21 1020.10 1019.99 1019.88 1019.79 1019.70 1019.63 1019.57 1019.53
1020.97 1021.26 1021.47 1021.62 1021.71 1021.77 1021.80 1021.83 1021.88 1021.93 1022.01 1022.10 1022.19 1022.27 1022.33 1022.36 1022.34 1022.29 1022.20 1022.07 1021.92 1021.75 1021.58 1021.42 1021.26 1021.11 1020.97 1020.83 1020.69 1020.55 1020.41 1020.27 1020.13 1020.00 1019.87 1019.77 1019.68 1019.60
Thickness
5700 5699 5698 5697 5696 5695 5693 5690 5683 5675 5674 5677 5679 5681 5681 5681 5680 5680 5680 5680 5680 5681 5682 5682 5683 5684 5685 5686 5687 5690 5691 5692 5693 5693 5693 5694 5694 5694
5698 5697 5696 5695 5694 5694 5692 5690 5688 5682 5676 5677 5678 5680 5680 5679 5679 5678 5678 5678 5678 5678 5678 5678 5679 5680 5680 5681 5682 5684 5685 5686 5686 5686 5686 5686 5687 5687
5696 5695 5694 5694 5692 5692 5691 5689 5687 5685 5679 5677 5678 5679 5678 5677 5677 5676 5676 5675 5675 5675 5675 5675 5675 5675 5676 5676 5677 5678 5678 5678 5679 5679 5679 5679 5679 5679
5694 5693 5692 5692 5690 5689 5688 5687 5685 5684 5681 5676 5676 5676 5676 5675 5675 5674 5673 5672 5672 5671 5671 5671 5671 5671 5671 5671 5672 5672 5672 5672 5671 5671 5671 5671 5672 5671
5692 5691 5690 5689 5687 5687 5686 5684 5683 5682 5680 5677 5674 5673 5673 5673 5671 5671 5670 5669 5669 5668 5667 5667 5667 5667 5667 5666 5666 5666 5665 5665 5665 5664 5664 5664 5664 5664
5691 5689 5688 5688 5686 5685 5684 5682 5681 5678 5676 5674 5671 5670 5669 5669 5668 5666 5665 5665 5665 5665 5664 5663 5662 5662 5662 5661 5660 5660 5659 5658 5658 5657 5657 5656 5656 5655
5688 5687 5687 5686 5686 5685 5683 5680 5678 5675 5672 5670 5667 5665 5664 5664 5663 5662 5660 5659 5659 5659 5659 5658 5658 5657 5656 5656 5654 5653 5653 5652 5651 5650 5649 5648 5648 5647
5685 5684 5683 5683 5683 5683 5682 5680 5678 5674 5671 5668 5664 5662 5661 5661 5660 5659 5655 5653 5652 5654 5653 5653 5653 5652 5651 5650 5649 5648 5646 5645 5644 5642 5641 5640 5639 5638
5682 5681 5681 5680 5679 5678 5677 5677 5675 5674 5672 5669 5664 5662 5661 5660 5658 5655 5652 5650 5648 5649 5648 5646 5646 5645 5646 5645 5644 5642 5640 5638 5636 5635 5633 5631 5630 5629
5680 5679 5678 5676 5676 5674 5673 5671 5670 5669 5669 5667 5665 5663 5662 5660 5656 5654 5651 5647 5645 5645 5643 5640 5639 5638 5640 5638 5637 5635 5633 5631 5629 5627 5625 5623 5621 5619
5677 5676 5675 5674 5673 5672 5669 5667 5665 5664 5664 5663 5662 5660 5659 5656 5654 5650 5645 5641 5638 5638 5637 5634 5632 5631 5631 5630 5629 5627 5625 5623 5621 5618 5616 5614 5611 5609
5672 5672 5672 5670 5670 5668 5665 5662 5659 5658 5658 5657 5656 5654 5652 5651 5649 5646 5642 5636 5632 5630 5631 5628 5625 5623 5622 5623 5622 5620 5617 5614 5612 5609 5607 5604 5601 5598
5668 5667 5667 5666 5665 5663 5661 5659 5657 5655 5652 5650 5648 5646 5645 5644 5642 5640 5637 5633 5628 5625 5626 5622 5618 5615 5612 5611 5612 5611 5608 5606 5603 5600 5597 5594 5591 5588
5664 5663 5662 5662 5661 5659 5656 5654 5652 5649 5645 5642 5640 5638 5637 5636 5635 5633 5631 5628 5626 5623 5620 5616 5612 5608 5603 5601 5600 5600 5599 5596 5593 5590 5587 5585 5582 5579
5661 5660 5658 5657 5655 5653 5651 5648 5646 5642 5638 5635 5633 5631 5630 5629 5627 5625 5623 5621 5618 5615 5612 5609 5605 5601 5596 5592 5590 5588 5586 5586 5583 5579 5576 5574 5571 5569
5656 5654 5652 5650 5647 5645 5643 5641 5638 5635 5632 5629 5627 5625 5623 5621 5618 5616 5613 5610 5607 5605 5604 5600 5597 5593 5588 5585 5581 5578 5575 5573 5572 5569 5565 5563 5561 5558
5648 5645 5642 5640 5638 5635 5634 5632 5630 5627 5624 5622 5619 5617 5615 5612 5610 5607 5603 5600 5596 5594 5592 5590 5587 5583 5580 5576 5571 5569 5565 5562 5559 5557 5553 5551 5550 5548
5641 5636 5634 5631 5629 5627 5625 5623 5621 5618 5616 5614 5611 5608 5605 5603 5600 5597 5593 5589 5586 5583 5580 5577 5574 5570 5567 5565 5562 5558 5554 5551 5548 5545 5541 5538 5538 5537
5632 5629 5626 5624 5621 5619 5616 5614 5612 5610 5607 5604 5601 5598 5596 5592 5589 5586 5582 5578 5575 5571 5568 5564 5560 5555 5552 5551 5552 5547 5542 5540 5536 5532 5529 5525 5524 5525
5623 5621 5618 5616 5613 5610 5608 5605 5603 5600 5597 5594 5591 5588 5585 5581 5578 5574 5570 5566 5563 5559 5556 5551 5547 5542 5539 5538 5538 5536 5531 5526 5522 5519 5516 5514 5512 5511
5614 5612 5610 5607 5605 5602 5599 5596 5593 5590 5587 5583 5580 5576 5573 5569 5565 5562 5558 5555 5550 5546 5542 5539 5536 5532 5528 5524 5521 5520 5517 5513 5508 5504 5502 5498 5496 5495
5606 5603 5601 5598 5595 5592 5589 5586 5582 5579 5575 5571 5568 5564 5560 5556 5552 5549 5544 5540 5536 5532 5529 5526 5522 5517 5512 5508 5506 5504 5502 5499 5495 5491 5487 5483 5479 5478
5596 5593 5591 5588 5584 5581 5578 5574 5571 5567 5563 5559 5555 5551 5547 5542 5538 5534 5530 5526 5521 5517 5513 5510 5505 5500 5496 5492 5489 5487 5485 5482 5479 5477 5475 5471 5467 5465